Dewpoint
18 18 18 18 18 18 18 19 19 20 20 20 20 21 20 21 21 21 22 22 25 27
17 18 18 17 18 18 18 18 18 19 19 20 21 21 21 21 21 21 21 22 23 24
18 18 18 18 18 18 18 19 19 19 20 20 21 21 21 21 22 21 22 22 22 23
16 17 17 18 18 18 19 19 19 19 19 20 20 20 21 21 21 21 21 21 22 22
17 17 17 17 17 18 18 19 19 19 19 19 20 20 20 20 21 21 20 21 21 21
15 17 18 18 18 18 18 18 19 19 19 19 19 19 20 20 20 21 21 21 21 21
15 15 16 18 18 18 18 18 18 18 18 19 19 19 19 20 20 20 20 21 21 21
16 16 16 16 17 18 19 18 18 18 19 19 19 19 19 20 20 20 20 21 21 22
14 15 16 16 16 17 17 18 18 18 19 19 18 24 26 25 23 26 25 21 20 21
14 14 15 16 16 16 16 17 18 19 19 19 19 25 27 27 24 27 27 26 25 23
14 14 15 16 16 17 17 18 19 20 21 21 21 26 27 28 25 28 27 27 25 25
14 15 16 17 17 19 20 21 21 21 22 23 23 27 28 28 28 28 27 27 26 24
15 16 17 18 19 21 22 23 24 22 22 25 25 29 31 31 29 27 27 25 25 29
15 17 18 20 21 22 23 23 22 21 22 23 25 28 33 34 30 29 27 25 24 24
Lifted_Index
23 23 23 23 24 24 24 25 25 25 25 24 24 24 24 23 23 22 22 21 21 21
23 23 24 24 24 24 25 25 25 25 25 25 25 25 24 24 24 23 22 22 22 21
24 24 24 24 24 25 25 25 25 25 25 25 25 25 25 25 24 24 24 23 23 22
24 24 24 24 24 24 23 23 23 23 23 23 23 23 23 24 24 24 24 24 24 23
24 24 23 22 22 21 20 20 19 19 19 19 19 19 20 20 21 21 22 23 23 23
22 21 20 19 18 17 17 16 16 16 15 15 15 16 16 16 17 17 18 20 21 21
18 17 16 16 15 15 15 15 14 14 14 14 14 14 14 14 14 14 15 16 17 18
14 14 14 14 14 14 14 14 14 14 13 13 13 13 13 13 13 12 13 13 14 15
13 13 13 13 13 13 13 14 14 13 13 13 13 13 12 12 11 11 11 12 12 13
13 13 13 13 13 13 14 14 14 14 14 13 13 13 12 12 11 11 10 10 11 11
13 13 13 13 14 14 15 15 15 15 14 14 13 12 12 11 11 10 10 10 10 10
13 13 13 14 15 15 16 16 16 15 14 13 12 11 11 10 10 10 10 9 9 9
14 14 14 15 16 16 16 16 16 15 14 12 11 10 9 9 9 9 9 9 9 9
14 14 15 16 17 17 17 17 16 15 13 12 11 9 8 8 8 8 8 8 9 9